Home > Weather > Paris > Past weeks

Flag for France Past Weather in Paris, Île-de-France, France — Yesterday and Last 2 Weeks

Now
59 °F

Clear.


Feels Like: 60 °F
Forecast: 58 / 68 °F
Wind: 3 mph from Northeast

Location: Villacoublay

Current Time: May 28, 2016 at 8:00:34 AM

Latest Report: May 28, 2016 at 7:00 AM


Visibility: 6 mi

Pressure: 29.92 "Hg

Humidity: 94%

Dew Point: 57 °F

Location of ParisLocation

Past Weather in Paris — Graph

°F

Paris Temperature Yesterday

Maximum temperature yesterday: 75 °F (at 3:00 PM)
Minimum temperature yesterday: 55 °F (at 5:30 AM)
Average temperature yesterday: 66 °F

High & Low Weather Summary for the Past Weeks

 TemperatureHumidityPressure
High75 °F (May 21, 5:00 PM)100% (May 13, 6:00 AM)30.24 "Hg (May 13, 6:00 AM)
Low39 °F (May 15, 5:30 AM)45% (May 15, 8:00 PM)29.56 "Hg (May 13, 6:00 AM)
Average56 °F77%29.97 "Hg
* Reported May 13 6:00 AM — May 28 6:30 AM, Paris, Weather by CustomWeather, © 2016

Note: Actual official high and low records may vary slightly from our data, if they occured in-between our weather recording intervals... More about our weather records

Advertising

Paris Weather History for the Previous 24 Hours

Scroll right to see more
 ConditionsComfort  
Time TempWeatherWind HumidityBarometerVisibility
6:30 AM
Sat, May 28
59 °FClear.2 mph88%29.92 "Hg6 mi
6:00 AM59 °FClear.3 mph88%29.92 "Hg10 mi
5:30 AM59 °FClear.1 mph88%29.92 "Hg10 mi
5:00 AM61 °FClear.2 mph83%29.92 "Hg10 mi
4:30 AM61 °FClear.3 mph83%29.92 "Hg10 mi
4:00 AM61 °FClear.3 mph88%29.92 "Hg10 mi
3:30 AM59 °FPassing clouds.5 mph88%29.95 "HgN/A
3:00 AM61 °FClear.No wind83%29.95 "Hg10 mi
2:30 AM61 °FClear.2 mph83%29.95 "Hg10 mi
2:00 AM61 °FClear.3 mph83%29.95 "Hg10 mi
1:30 AM63 °FClear.3 mph77%29.95 "Hg10 mi
1:00 AM63 °FClear.2 mph77%29.95 "Hg10 mi
12:30 AM63 °FClear.3 mph77%29.95 "Hg10 mi
12:00 AM63 °FClear.6 mph77%29.95 "Hg10 mi
11:30 PM
Fri, May 27
64 °FClear.6 mph73%29.95 "Hg10 mi
11:00 PM64 °FPassing clouds.7 mph73%29.95 "HgN/A
10:30 PM66 °FPassing clouds.5 mph68%29.95 "HgN/A
10:00 PM66 °FSunny.6 mph68%29.95 "Hg10 mi
9:30 PM68 °FPassing clouds.5 mph64%29.95 "HgN/A
9:00 PM72 °FSunny.5 mph57%29.95 "Hg10 mi
8:30 PM72 °FSunny.3 mph57%29.95 "Hg10 mi
8:00 PM73 °FSunny.5 mph53%29.92 "Hg10 mi
7:30 PM73 °FSunny.7 mph53%29.92 "Hg10 mi
7:00 PM73 °FPassing clouds.6 mph57%29.92 "HgN/A
6:30 PM75 °FScattered clouds.5 mph50%29.92 "HgN/A
6:00 PM73 °FPassing clouds.3 mph53%29.95 "HgN/A
5:30 PM73 °FPassing clouds.5 mph57%29.95 "HgN/A
5:00 PM73 °FPartly sunny.2 mph57%29.92 "HgN/A
4:30 PM73 °FPartly sunny.6 mph57%29.95 "HgN/A
4:00 PM73 °FBroken clouds.5 mph61%29.95 "HgN/A
3:30 PM73 °FBroken clouds.3 mph57%29.95 "HgN/A
3:00 PM75 °FBroken clouds.6 mph57%29.95 "HgN/A
2:30 PM73 °FBroken clouds.3 mph53%29.95 "HgN/A
2:00 PM73 °FBroken clouds.5 mph53%29.95 "HgN/A
1:30 PM70 °FPartly sunny.5 mph60%29.95 "HgN/A
1:00 PM72 °FScattered clouds.5 mph57%29.95 "HgN/A
12:30 PM72 °FScattered clouds.3 mph57%29.95 "HgN/A
12:00 PM70 °FBroken clouds.5 mph60%29.95 "HgN/A
11:30 AM70 °FPartly sunny.3 mph64%29.95 "HgN/A
11:00 AM68 °FBroken clouds.5 mph73%29.95 "HgN/A
10:30 AM70 °FSunny.1 mph69%29.95 "Hg10 mi
10:00 AM66 °FSunny.2 mph78%29.95 "Hg10 mi
9:30 AM64 °FSunny.3 mph83%29.95 "Hg10 mi
9:00 AM64 °FSunny.No wind78%29.95 "Hg10 mi
8:30 AM63 °FSunny.1 mph83%29.95 "Hg10 mi
8:00 AM59 °FSunny.3 mph88%29.95 "Hg10 mi
Weather by CustomWeather, © 2016

See weather overviewHow to use our weather pages